Powrót do katalogu

QIANFAN-122

AktywnyŁącznośćPO
NORAD 68649·PAYLOAD·🇨🇳 China

Wystrzelony Apr 7, 2026 z Wenchang Space Launch Site

Loading…

Następne Przeloty (najbliższe 24 godziny)

TLE

ŚwieżeSource: Space-Track

Epoka: Sep 14, 2026, 14:09 UTC

1 68649U 26075P   26257.58975685  .00000076  00000-0  99214-4 0  9990
2 68649  88.9873 311.8689 0002251  89.1232 271.0177 13.51026974 21870

Śledź QIANFAN-122 w czasie rzeczywistym z AllMySat

Download on the App Store